This is the latest recevied weather packets stored in our database for station/object SP1BMW-13. If no packets are shown the sender has not sent any weather packets the latest 10 day(s).
| Time | Temp. | Humidity | Pressure | Rain* | Wind** | Luminosity | Snow |
|---|---|---|---|---|---|---|---|
| 1777319093 | 7.78° C | 43% | 1023 hPa | 0 mm | 0 m/s | 0 W/m² | - |
| 1777319033 | 7.78° C | 44% | 1023.1 hPa | 0 mm | 0 m/s | 0 W/m² | - |
| 1777318973 | 7.78° C | 43% | 1023.2 hPa | 0 mm | 0.45 m/s, 44° | 0 W/m² | - |
| 1777318913 | 8.33° C | 44% | 1023 hPa | 0 mm | 0.45 m/s, 41° | 0 W/m² | - |
| 1777318853 | 8.33° C | 44% | 1023.1 hPa | 0 mm | 0 m/s | 0 W/m² | - |
| 1777318793 | 8.33° C | 43% | 1023.2 hPa | 0 mm | 0 m/s | 0 W/m² | - |
| 1777318733 | 8.33° C | 43% | 1023.2 hPa | 0 mm | 0 m/s | 0 W/m² | - |
| 1777318673 | 8.33° C | 43% | 1023.1 hPa | 0 mm | 0.89 m/s, 46° | 0 W/m² | - |
| 1777318613 | 8.33° C | 43% | 1023.1 hPa | 0 mm | 0.89 m/s, 64° | 0 W/m² | - |
| 1777318553 | 8.33° C | 43% | 1022.9 hPa | 0 mm | 0.45 m/s, 45° | 0 W/m² | - |
| 1777318493 | 8.33° C | 43% | 1023 hPa | 0 mm | 0.89 m/s, 40° | 0 W/m² | - |
| 1777318433 | 8.33° C | 43% | 1023 hPa | 0 mm | 1.34 m/s, 304° | 0 W/m² | - |
| 1777318373 | 8.33° C | 44% | 1023 hPa | 0 mm | 0 m/s | 0 W/m² | - |
| 1777318313 | 8.33° C | 43% | 1022.9 hPa | 0 mm | 0 m/s | 0 W/m² | - |
| 1777318253 | 8.33° C | 44% | 1023.2 hPa | 0 mm | 0 m/s | 0 W/m² | - |
| 1777318193 | 8.33° C | 43% | 1023.1 hPa | 0 mm | 0.89 m/s, 41° | 0 W/m² | - |
| 1777318133 | 8.33° C | 44% | 1023 hPa | 0 mm | 0 m/s | 0 W/m² | - |
| 1777318073 | 8.33° C | 43% | 1023 hPa | 0 mm | 1.79 m/s, 47° | 0 W/m² | - |
| 1777318012 | 8.33° C | 44% | 1023 hPa | 0 mm | 1.34 m/s, 30° | 0 W/m² | - |
| 1777317953 | 8.33° C | 43% | 1022.9 hPa | 0 mm | 0 m/s | 0 W/m² | - |
| 1777317893 | 8.33° C | 43% | 1023 hPa | 0 mm | 0 m/s | 0 W/m² | - |
| 1777317833 | 8.33° C | 43% | 1023 hPa | 0 mm | 0.89 m/s, 41° | 0 W/m² | - |
| 1777317772 | 8.33° C | 43% | 1022.9 hPa | 0 mm | 0.45 m/s, 7° | 0 W/m² | - |
| 1777317713 | 8.33° C | 43% | 1022.8 hPa | 0 mm | 0.89 m/s, 44° | 0 W/m² | - |
| 1777317652 | 8.33° C | 43% | 1022.9 hPa | 0 mm | 1.34 m/s, 46° | 0 W/m² | - |
* Rain latest hour (hover to see other rain measurements)
** Current wind speed in m/s (hover to see current wind gust speed)